Wind_Speed
9 9 9 9 7 6 5 4 3 1 0 0 1 2 1 1 1 2 1 1 1 1 1 1 1 2 3 3 3 4 3 3 2 2 2 2 2 2 2 1 1 1 1
9 9 9 9 8 7 5 4 3 2 1 0 0 1 1 1 1 2 2 1 1 1 1 2 2 3 3 3 3 4 4 3 3 3 2 2 2 2 3 3 2 1 2
9 8 8 8 8 7 6 4 3 2 1 0 0 0 1 1 1 1 1 1 1 1 1 2 3 3 3 3 3 4 4 3 3 3 2 3 2 2 3 3 2 1 2
8 8 8 8 8 7 6 4 3 2 2 1 1 1 1 1 1 1 1 0 1 1 1 2 3 3 3 2 3 3 4 3 4 3 2 2 3 2 2 2 2 2 2
7 7 7 7 7 7 5 4 3 3 2 2 2 2 1 1 1 1 2 1 1 1 1 2 2 2 2 2 2 3 3 3 3 3 2 2 2 2 2 2 2 2 2
7 7 8 7 7 7 5 4 4 3 3 3 3 2 2 2 2 2 2 2 2 1 1 2 2 2 2 2 2 3 3 3 3 3 2 2 2 2 2 2 2 2 2
7 8 7 7 7 6 5 5 4 4 4 4 4 3 3 3 3 3 3 2 2 2 2 3 2 3 3 2 2 3 3 3 3 3 2 2 2 2 3 3 3 3 3
8 8 8 7 7 7 6 6 6 5 5 5 4 4 4 4 4 3 3 3 3 3 2 2 2 3 3 3 2 2 3 4 4 3 4 3 2 2 3 4 3 4 4
8 8 8 8 8 7 6 7 7 6 6 6 5 5 5 4 4 4 3 4 3 3 2 2 2 2 3 4 3 3 3 4 4 4 4 3 2 2 3 4 3 4 4
9 9 9 9 9 8 8 7 7 7 7 7 6 6 6 5 5 5 4 4 4 4 3 3 2 3 3 4 4 4 4 5 5 5 4 3 3 4 3 3 3 4 4
9 9 10 9 10 9 9 8 8 8 8 7 7 6 6 6 6 6 5 5 4 5 5 4 3 3 4 4 5 4 4 5 5 5 5 4 4 4 3 3 4 5 4
10 10 10 11 11 10 10 9 9 8 8 8 7 6 6 6 6 5 5 5 4 4 5 5 4 4 3 4 5 5 5 5 5 5 5 5 4 4 4 5 5 5 5
12 12 12 13 13 12 11 11 9 9 9 9 8 7 7 6 6 5 5 5 5 5 4 4 5 5 4 4 4 5 5 6 6 6 5 5 5 5 5 5 5 6 6
12 13 13 13 13 13 12 12 11 10 10 9 9 8 8 7 6 5 6 6 5 5 5 5 4 4 4 4 4 5 6 6 7 6 6 6 6 6 5 5 6 7 7
13 13 13 14 14 14 13 12 11 11 11 11 9 9 8 7 7 7 7 6 6 5 4 5 5 5 4 4 5 5 6 6 6 6 6 6 6 6 6 6 6 7 7
14 14 14 14 14 13 12 12 12 11 11 11 11 11 10 9 8 8 7 7 7 6 5 5 5 5 5 5 5 6 6 6 6 6 7 6 6 7 7 8 8 8 7
15 14 15 13 14 14 13 12 12 12 11 11 11 11 10 10 9 9 8 7 7 7 6 6 5 6 6 6 6 6 6 7 7 7 8 8 8 8 8 9 9 9 9
16 15 14 14 14 14 14 13 12 12 11 11 11 11 10 10 9 8 8 8 7 7 7 7 7 7 6 6 6 6 7 8 8 8 8 9 9 9 10 11 11 11 10
17 16 15 15 14 14 14 14 13 12 12 11 11 11 10 10 9 8 8 8 9 8 8 7 7 7 7 7 7 8 8 8 8 8 9 10 10 11 11 11 11 11 10
17 16 16 15 15 15 15 15 14 14 13 12 12 12 12 11 10 10 9 9 9 9 9 9 9 8 9 9 9 9 9 10 9 10 10 11 11 12 12 12 12 12 11
18 17 17 17 16 16 15 15 14 14 14 13 13 12 12 11 11 10 10 9 10 10 10 10 11 10 11 11 11 11 11 11 11 12 12 12 12 12 13 12 12 12 12
19 18 18 18 17 17 16 15 14 14 14 14 13 13 12 12 11 11 11 10 11 11 11 11 11 12 12 12 13 13 12 12 12 13 13 13 13 13 13 12 12 12 12
19 19 19 18 18 17 16 15 14 14 14 14 14 13 12 12 12 13 12 12 12 12 12 12 12 12 13 13 14 13 13 13 14 14 14 14 14 14 13 13 12 12 11
19 19 18 17 16 16 16 15 15 15 15 15 14 14 13 13 13 13 13 13 13 13 13 13 13 13 13 13 14 14 14 14 14 15 15 15 15 14 13 12 12 12 12
19 19 18 18 17 17 16 16 17 17 16 16 16 16 15 14 14 13 13 14 14 14 14 13 14 14 14 14 14 14 14 15 15 15 16 15 14 14 13 13 13 13 12
18 18 17 17 17 17 17 17 17 18 17 17 16 16 16 16 15 14 14 14 14 14 14 14 14 15 15 15 15 15 15 15 15 15 15 15 14 14 14 14 14 14 14
Wind_Direction
2 2 2 2 1 1 0 4 2 356 299 180 179 172 160 144 127 121 110 120 135 159 169 189 173 164 158 147 154 157 157 153 149 146 155 156 172 191 208 219 198 184 179
359 1 3 6 5 6 7 8 16 8 8 67 162 200 198 184 158 148 122 127 135 163 195 194 178 163 160 153 154 160 156 153 155 150 156 175 183 185 200 212 216 206 192
355 1 3 5 6 8 9 13 17 16 4 4 15 273 231 212 188 153 120 129 162 186 199 189 174 158 164 155 153 163 166 163 165 163 169 190 193 198 200 208 209 187 189
354 2 1 4 6 7 6 9 9 7 17 22 14 342 277 228 216 212 203 127 166 184 172 161 165 159 157 150 153 165 172 178 181 184 192 199 209 220 210 200 201 190 203
353 1 1 1 2 4 5 7 6 8 11 5 357 337 321 287 251 248 242 245 192 192 183 171 182 183 182 174 176 179 182 195 197 195 199 214 211 229 233 225 214 212 217
349 354 356 356 354 358 1 357 354 351 345 341 336 329 314 287 284 271 263 256 248 237 223 216 212 210 206 208 194 192 195 197 200 208 232 228 221 228 228 228 231 223 217
342 344 348 349 346 348 350 346 337 332 328 326 322 316 310 299 294 290 280 268 257 246 235 236 233 224 219 212 188 197 204 204 212 223 236 234 225 239 227 230 214 233 244
333 334 337 341 342 338 334 332 328 321 319 316 319 312 305 305 297 294 288 276 274 265 252 250 239 217 229 216 191 198 202 211 218 218 228 239 242 245 243 243 248 244 243
331 332 333 331 334 329 321 319 319 317 310 307 310 311 306 302 297 297 285 275 280 273 251 248 236 225 232 221 211 213 219 221 222 222 227 232 240 246 252 250 254 248 249
326 329 330 327 330 330 322 318 315 310 309 307 302 302 304 302 295 293 287 280 285 281 267 259 247 240 233 236 240 236 236 235 228 226 230 235 246 256 271 268 265 257 255
321 326 328 324 321 323 321 319 320 315 312 309 299 297 299 297 292 287 288 289 289 284 273 256 258 244 241 240 246 241 240 241 234 234 232 239 255 264 273 281 285 278 266
318 321 326 323 319 315 315 315 315 314 309 304 296 294 296 292 291 286 283 291 293 286 273 261 255 258 252 254 260 252 247 252 245 249 248 251 257 264 269 279 284 289 270
314 313 318 321 318 314 310 310 310 307 303 299 296 297 295 288 289 288 285 289 288 280 274 266 259 263 262 268 270 266 259 255 252 258 261 262 264 265 269 277 282 287 284
308 308 308 312 315 311 307 303 301 301 299 296 294 298 297 284 280 281 288 290 285 272 270 267 258 258 263 263 267 273 269 269 268 263 266 267 266 266 271 276 281 286 286
303 304 303 304 305 305 301 298 296 297 294 291 291 295 292 286 276 275 283 279 279 275 266 260 260 263 274 271 273 274 272 271 271 268 270 271 270 272 276 280 289 297 290
301 300 302 303 303 301 295 292 293 294 289 287 290 293 288 283 282 278 278 275 268 267 267 268 267 269 279 280 278 275 273 275 274 274 272 273 275 280 284 284 287 291 290
301 297 298 298 300 299 294 290 289 287 287 287 290 293 292 287 283 278 276 276 276 273 265 266 272 277 276 273 271 273 275 276 273 274 273 275 278 280 283 284 288 290 291
298 296 296 299 298 295 294 292 289 285 285 286 287 289 292 290 282 275 271 270 273 276 275 272 279 278 277 274 275 277 278 277 279 280 278 280 280 279 281 283 286 285 287
294 292 291 292 293 293 292 290 288 284 283 285 287 287 289 293 288 280 274 274 274 279 283 285 289 285 281 282 283 280 279 278 281 283 287 288 285 284 284 285 286 285 286
288 287 288 289 291 290 288 285 284 283 281 281 283 284 285 289 291 289 284 282 279 278 284 288 288 289 283 279 280 278 276 277 278 283 287 290 290 289 286 284 283 282 283
286 285 285 285 287 286 285 282 280 280 279 279 282 283 284 284 283 283 282 282 280 279 284 285 286 285 283 279 278 277 278 279 282 283 284 287 289 290 289 284 281 281 281
283 284 282 281 282 282 280 278 277 275 277 277 278 278 280 279 275 276 277 278 276 277 281 285 285 284 283 282 280 279 279 279 280 282 283 284 287 288 287 287 281 281 281
280 282 282 281 279 278 276 275 275 273 276 276 275 276 278 275 273 274 274 275 273 277 279 282 286 286 284 281 280 280 279 279 280 282 284 286 287 286 285 284 282 282 283
279 280 283 282 279 276 277 275 274 274 273 273 274 271 272 271 271 272 271 274 274 276 278 279 281 283 283 282 282 283 282 282 283 284 284 286 287 285 282 281 282 282 282
279 279 280 279 278 277 277 276 273 271 269 271 271 270 269 268 269 270 273 273 273 276 277 278 279 282 283 282 283 283 281 283 284 286 286 287 286 283 281 281 282 283 284
278 278 277 275 275 276 278 277 274 271 269 269 270 270 269 267 267 268 271 273 273 275 276 276 278 279 281 281 281 284 284 284 283 285 285 284 284 283 281 282 282 282 282
Height
5881 5879 5878 5877 5876 5875 5874 5873 5872 5871 5871 5870 5870 5870 5870 5870 5870 5870 5869 5869 5869 5869 5869 5869 5869 5869 5869 5870 5870 5871 5872 5872 5873 5874 5874 5875 5875 5876 5877 5877 5878 5879 5879
5882 5880 5878 5877 5876 5875 5874 5873 5873 5872 5872 5871 5870 5870 5870 5870 5870 5870 5870 5869 5869 5869 5869 5869 5869 5869 5870 5870 5871 5871 5872 5873 5873 5874 5874 5875 5875 5876 5877 5878 5878 5879 5879
5882 5880 5879 5878 5876 5875 5875 5874 5873 5873 5872 5871 5871 5871 5870 5870 5870 5870 5870 5869 5869 5869 5869 5869 5869 5870 5870 5870 5871 5871 5872 5873 5873 5874 5874 5875 5875 5876 5877 5878 5878 5879 5879
5882 5881 5879 5878 5877 5876 5875 5874 5874 5873 5873 5872 5871 5871 5871 5870 5870 5870 5870 5870 5869 5870 5870 5869 5870 5870 5870 5871 5871 5871 5872 5873 5873 5874 5874 5874 5875 5876 5876 5877 5878 5879 5879
5882 5881 5879 5878 5877 5876 5875 5875 5874 5874 5873 5873 5872 5871 5871 5871 5870 5870 5870 5870 5870 5870 5870 5870 5870 5870 5871 5871 5871 5872 5872 5873 5873 5874 5874 5874 5875 5875 5876 5877 5877 5878 5879
5882 5881 5880 5878 5877 5876 5876 5875 5875 5874 5873 5873 5872 5872 5871 5871 5870 5870 5870 5870 5870 5870 5870 5870 5870 5870 5871 5871 5871 5872 5872 5873 5873 5874 5874 5874 5875 5875 5876 5876 5877 5878 5878
5882 5881 5880 5879 5878 5877 5876 5875 5875 5874 5873 5873 5872 5872 5871 5870 5870 5870 5870 5870 5870 5870 5869 5869 5870 5870 5870 5871 5871 5872 5872 5873 5873 5874 5874 5874 5874 5874 5875 5876 5876 5877 5878
5882 5881 5880 5879 5878 5877 5876 5875 5875 5874 5873 5872 5872 5871 5871 5870 5870 5870 5870 5870 5870 5869 5869 5869 5870 5870 5870 5870 5871 5871 5872 5872 5873 5874 5874 5874 5874 5874 5875 5875 5876 5876 5877
5881 5880 5879 5878 5877 5877 5876 5875 5874 5874 5873 5872 5871 5871 5871 5870 5869 5869 5869 5869 5869 5869 5869 5869 5869 5870 5870 5870 5870 5871 5871 5872 5872 5873 5873 5874 5874 5874 5875 5875 5875 5876 5876
5881 5880 5879 5878 5877 5876 5875 5874 5873 5873 5872 5871 5871 5870 5870 5869 5869 5869 5869 5868 5869 5869 5868 5869 5869 5869 5870 5870 5870 5871 5871 5871 5872 5873 5873 5873 5873 5874 5874 5875 5875 5875 5876
5880 5879 5878 5877 5876 5875 5874 5873 5872 5872 5871 5870 5870 5870 5869 5869 5868 5868 5868 5868 5868 5868 5868 5868 5868 5869 5869 5869 5870 5870 5871 5871 5872 5872 5873 5873 5873 5874 5874 5874 5874 5874 5875
5879 5878 5877 5876 5875 5874 5873 5872 5872 5871 5870 5870 5869 5869 5869 5868 5868 5868 5868 5867 5867 5867 5867 5868 5868 5868 5868 5869 5869 5870 5870 5870 5871 5871 5872 5872 5873 5873 5873 5873 5874 5874 5874
5878 5877 5876 5875 5874 5873 5872 5871 5871 5870 5870 5869 5869 5868 5868 5867 5867 5867 5867 5866 5866 5866 5866 5866 5867 5867 5867 5868 5868 5869 5869 5870 5870 5871 5871 5871 5872 5872 5873 5873 5873 5873 5873
5877 5876 5875 5874 5873 5872 5871 5870 5869 5869 5868 5868 5868 5867 5867 5866 5866 5866 5866 5866 5865 5865 5865 5865 5866 5866 5867 5867 5867 5868 5869 5869 5869 5870 5870 5871 5871 5871 5872 5872 5872 5872 5872
5875 5874 5873 5872 5871 5870 5869 5868 5868 5867 5867 5866 5866 5866 5865 5865 5865 5865 5865 5865 5864 5864 5865 5865 5865 5866 5866 5867 5867 5868 5868 5869 5869 5869 5870 5870 5870 5871 5871 5871 5871 5871 5871
5873 5872 5871 5870 5869 5868 5867 5867 5866 5865 5865 5865 5864 5864 5864 5864 5863 5864 5864 5863 5863 5864 5864 5864 5865 5865 5865 5866 5866 5867 5867 5867 5868 5868 5869 5869 5869 5870 5870 5870 5870 5870 5870
5871 5869 5867 5867 5867 5866 5865 5865 5864 5863 5863 5863 5863 5862 5862 5862 5862 5862 5862 5863 5863 5863 5863 5864 5864 5865 5865 5865 5865 5866 5866 5866 5867 5867 5867 5868 5868 5868 5868 5868 5868 5868 5868
5868 5867 5865 5864 5864 5864 5863 5862 5862 5862 5861 5861 5861 5861 5861 5860 5860 5861 5861 5861 5862 5862 5862 5863 5863 5864 5864 5864 5864 5865 5865 5865 5866 5866 5866 5866 5866 5867 5867 5867 5866 5866 5866
5865 5864 5864 5863 5862 5861 5860 5860 5860 5859 5859 5860 5860 5860 5860 5859 5859 5859 5860 5860 5860 5861 5861 5862 5862 5862 5863 5863 5863 5864 5864 5864 5864 5864 5864 5864 5865 5865 5865 5865 5864 5864 5864
5862 5862 5861 5860 5859 5859 5858 5857 5857 5857 5857 5858 5858 5858 5858 5858 5857 5858 5858 5858 5859 5859 5860 5860 5861 5861 5861 5861 5862 5862 5862 5862 5862 5862 5862 5862 5862 5862 5862 5862 5862 5862 5861
5858 5858 5858 5857 5857 5856 5855 5855 5855 5855 5855 5856 5856 5856 5856 5856 5856 5856 5856 5857 5857 5858 5858 5858 5859 5859 5859 5859 5859 5860 5860 5860 5859 5860 5860 5860 5860 5859 5859 5859 5859 5859 5859
5855 5855 5854 5854 5853 5853 5852 5852 5852 5852 5852 5853 5853 5853 5853 5853 5853 5854 5854 5855 5855 5856 5856 5856 5856 5857 5857 5857 5857 5857 5858 5858 5858 5858 5858 5857 5857 5856 5856 5856 5856 5856 5856
5851 5851 5850 5850 5849 5849 5849 5849 5849 5849 5849 5849 5849 5850 5850 5850 5851 5852 5852 5853 5853 5854 5854 5854 5854 5854 5854 5854 5854 5855 5855 5855 5855 5855 5855 5854 5854 5853 5853 5853 5853 5852 5852
5847 5846 5846 5845 5845 5846 5846 5846 5845 5846 5846 5846 5846 5847 5847 5848 5848 5849 5849 5850 5850 5851 5852 5852 5851 5851 5851 5851 5851 5851 5851 5851 5852 5852 5852 5851 5851 5850 5850 5850 5849 5849 5849
5842 5842 5842 5841 5841 5842 5842 5842 5842 5842 5842 5842 5843 5843 5844 5845 5845 5846 5847 5847 5847 5848 5848 5849 5849 5848 5848 5848 5848 5848 5848 5848 5848 5848 5848 5848 5847 5847 5846 5846 5846 5846 5846
5838 5838 5838 5837 5837 5837 5837 5837 5837 5838 5838 5838 5839 5839 5840 5841 5842 5843 5843 5844 5844 5844 5845 5845 5845 5845 5845 5845 5845 5844 5844 5844 5844 5844 5844 5844 5844 5843 5843 5843 5843 5842 5842